Weather History for Del Bajio, Mexico

Change the Weather History Date:

Tuesday, February 14, 2012

  Actual Average Record
Temperature  
Mean Temperature 62 °F -  
Max Temperature 69 °F 77 °F 84 °F (2000)
Min Temperature 55 °F 44 °F 32 °F (1999)
Degree Days  
Heating Degree Days 3    
Growing Degree Days 12 (Base 50)    
Moisture  
Dew Point 56 °F    
Average Humidity 87    
Maximum Humidity 100    
Minimum Humidity 56    
Precipitation  
Precipitation 0.00 in - - ()
Sea Level Pressure  
Sea Level Pressure 30.11 in    
Wind  
Wind Speed 3 mph ()    
Max Wind Speed 13 mph    
Max Gust Speed -    
Visibility 7.9 miles    
Events      
Averages and records for this station are not official NWS values.
T = Trace of Precipitation, MM = Missing Value Source: Averaged Metar Reports

Daily Weather History Graph

Daily Weather History Graph

Search for Another Location

Airport:

Trip Planner

Search our weather history database for the weather conditions in past years. The results will help you decide how hot, cold, wet, or windy it might be!

Date:

Astronomy

Feb. 14, 2012 Rise Set
Actual Time 7:16 AM CST 6:43 PM CST
Civil Twilight 6:54 AM CST 7:06 PM CST
Nautical Twilight 6:28 AM CST 7:32 PM CST
Astronomical Twilight 6:02 AM CST 7:58 PM CST
Moon 12:48 AM CST (2/14) 12:08 PM CST (2/14)
Length of Visible Light 12h 11m
Length of Day
11h 26m
Waning Gibbous, 50% of the Moon is Illuminated
Feb 14
Waning Gibbous
Feb 21
New
Feb 29
First Quarter
Mar 8
Full
Mar 14
Last Quarter

Hourly Weather History & Observations

Time (CST) Temp. Dew Point Humidity Pressure Visibility Wind Dir Wind Speed Gust Speed Precip Events Conditions
12:45 AM 57.2 °F 57.2 °F 100% 30.24 in 8.0 mi Calm Calm - N/A   Mostly Cloudy
2:42 AM 55.4 °F 55.4 °F 100% 29.89 in 6.0 mi West 4.6 mph - N/A   Overcast
3:44 AM 55.4 °F 55.4 °F 100% 30.21 in 7.0 mi WNW 3.5 mph - N/A   Overcast
4:44 AM 55.4 °F 55.4 °F 100% 30.21 in 7.0 mi Calm Calm - N/A   Overcast
5:44 AM 55.4 °F 55.4 °F 100% 29.90 in 7.0 mi Calm Calm - N/A   Overcast
6:43 AM 55.4 °F 55.4 °F 100% 30.21 in 7.0 mi Calm Calm - N/A   Overcast
7:43 AM 55.4 °F 55.4 °F 100% 30.24 in 8.0 mi Calm Calm - N/A   Mostly Cloudy
8:46 AM 57.2 °F 57.2 °F 100% 29.97 in 8.0 mi Calm Calm - N/A   Mostly Cloudy
9:51 AM 59.0 °F 59.0 °F 100% 30.26 in 8.0 mi Calm Calm - N/A   Overcast
10:24 AM 57.2 °F 57.2 °F 100% 30.27 in 3.0 mi WSW 6.9 mph - N/A   Drizzle
10:52 AM 57.2 °F 57.2 °F 100% 30.27 in 6.0 mi West 4.6 mph - N/A   Overcast
11:45 AM 62.6 °F 59.0 °F 88% 29.97 in 8.0 mi SW 4.6 mph - N/A   Overcast
12:43 PM 64.4 °F 57.2 °F 77% 30.24 in 8.0 mi SSW 5.8 mph - N/A   Mostly Cloudy
1:43 PM 66.2 °F 55.4 °F 68% 30.19 in 10.0 mi WSW 10.4 mph - N/A   Mostly Cloudy
2:47 PM 69.8 °F 53.6 °F 56% 29.82 in 10.0 mi SW 12.7 mph - N/A   Overcast
3:53 PM 69.8 °F 53.6 °F 56% 30.15 in 10.0 mi WSW 11.5 mph - N/A   Overcast
5:55 PM 64.4 °F 55.4 °F 73% 29.85 in 10.0 mi West 6.9 mph - N/A   Overcast
6:43 PM 64.4 °F 55.4 °F 73% 30.18 in 10.0 mi Calm Calm - N/A   Overcast
7:43 PM 62.6 °F 55.4 °F 77% 30.21 in 8.0 mi WSW 8.1 mph - N/A   Overcast
8:43 PM 60.8 °F 55.4 °F 82% 29.92 in 8.0 mi Calm Calm - N/A   Overcast
9:50 PM 59.0 °F 53.6 °F 82% 30.25 in 8.0 mi Calm Calm - N/A   Overcast
10:48 PM 57.2 °F 53.6 °F 88% 30.24 in 8.0 mi Calm Calm - N/A   Overcast
11:50 PM 57.2 °F 53.6 °F 88% 29.95 in 8.0 mi Calm Calm - N/A   Overcast